Location: Unspecified
(0.0000°N, 0.0000°E)
Time: 13:40:31
(UTC+00:00)

Transit 4A - Pass Details

Date: 27 November 2019
Orbit: 870 x 975 km, 66.8° (Epoch: 08 December)

Event Time Altitude Azimuth Distance (km) Brightness Sun altitude
Rises 17:54:24 0° 189° (S) 3,668 11.5 -1.6°
Reaches altitude 10° 17:57:03 10° 184° (S) 2,720 10.7 -2.2°
Maximum altitude 18:03:12 50° 110° (ESE) 1,211 8.3 -3.6°
Drops below altitude 10° 18:09:15 10° 35° (NE) 2,683 9.8 -5.0°
Sets 18:11:51 0° 30° (NNE) 3,614 10.5 -5.6°
